User: anonymous   Login
Location: Downe
(51.3167°N, 0.0500°E)
Time: 09:16:19
(UTC+00:00)
Language:

CZ-2C R/B - Orbit

View from above orbital plane
View from above orbital plane
View from above satellite
View from above satellite

Ground track
Ground track

The orbit data is extracted from the following two-line orbital elements,

1 36089U 09061B   20025.55827513 -.00000045 +00000-0 +37388-6 0  9992
2 36089 098.1361 003.9551 0081927 355.8162 114.4942 14.49813742539607
Epoch (UTC): 25 January 2020 13:23:54
Eccentricity: 0.0081927
inclination: 98.1361°
perigee height: 668 km
apogee height: 784 km
right ascension of ascending node: 3.9551°
argument of perigee: 355.8162°
revolutions per day: 14.49813742
mean anomaly at epoch: 114.4942°
orbit number at epoch: 53960

The dashed part of the orbit path shows where the satellite is in the earth's shadow,  

DLR